N3285G KCLL-KBTR

Flight info

Callsign N3285G
Flight time 0h 48m
Altitude 37000
Route ROKIT LSU
Aircraft C750/M-SBDE3FGHRWXY/S

Departure

Time 2026-04-25 02:04
Airport Easterwood Field (KCLL)

Arrival

Time 2026-04-25 02:52
Airport Baton Rouge Metropolitan Airport (KBTR)
Time Latitude Longitude Altitude Speed Heading
2026-04-25 00:47 30.58492 -96.36192 316 ft 0 kts 79°
2026-04-25 01:57 30.58493 -96.36184 317 ft 1 kts 79°
2026-04-25 01:57 30.58521 -96.36155 317 ft 10 kts 357°
2026-04-25 01:57 30.58596 -96.36173 316 ft 11 kts 348°
2026-04-25 01:58 30.58664 -96.36188 318 ft 10 kts 349°
2026-04-25 01:58 30.58730 -96.36203 318 ft 9 kts 349°
2026-04-25 01:58 30.58799 -96.36218 320 ft 10 kts 349°
2026-04-25 01:58 30.58860 -96.36232 319 ft 8 kts 349°
2026-04-25 01:59 30.58914 -96.36244 320 ft 8 kts 349°
2026-04-25 01:59 30.58979 -96.36259 320 ft 11 kts 347°
2026-04-25 01:59 30.59061 -96.36303 320 ft 14 kts 324°
2026-04-25 01:59 30.59135 -96.36369 320 ft 12 kts 322°
2026-04-25 02:00 30.59195 -96.36426 322 ft 11 kts 316°
2026-04-25 02:00 30.59272 -96.36508 321 ft 18 kts 319°
2026-04-25 02:00 30.59350 -96.36470 321 ft 13 kts 47°
2026-04-25 02:00 30.59416 -96.36428 322 ft 10 kts 355°
2026-04-25 02:01 30.59506 -96.36445 322 ft 16 kts 350°
2026-04-25 02:01 30.59613 -96.36459 323 ft 14 kts 27°
2026-04-25 02:01 30.59642 -96.36380 322 ft 0 kts 80°
2026-04-25 02:02 30.59643 -96.36370 322 ft 3 kts 80°
2026-04-25 02:03 30.59651 -96.36318 321 ft 10 kts 80°
2026-04-25 02:03 30.59610 -96.36269 319 ft 14 kts 169°
2026-04-25 02:03 30.59320 -96.36206 322 ft 94 kts 168°
2026-04-25 02:03 30.58435 -96.36014 551 ft 142 kts 171°
2026-04-25 02:04 30.57396 -96.35825 1044 ft 162 kts 172°
2026-04-25 02:04 30.56217 -96.35588 1529 ft 183 kts 170°
2026-04-25 02:04 30.55020 -96.34808 1912 ft 223 kts 134°
2026-04-25 02:04 30.54271 -96.33097 2400 ft 257 kts 107°
2026-04-25 02:05 30.54117 -96.30936 3153 ft 272 kts 92°
2026-04-25 02:05 30.54134 -96.28736 4249 ft 274 kts 91°
2026-04-25 02:05 30.54115 -96.26502 5170 ft 280 kts 91°
2026-04-25 02:05 30.54056 -96.24250 6038 ft 286 kts 90°
2026-04-25 02:06 30.54005 -96.21923 6856 ft 292 kts 90°
2026-04-25 02:06 30.53966 -96.19548 7775 ft 297 kts 90°
2026-04-25 02:06 30.53923 -96.17133 8749 ft 302 kts 91°
2026-04-25 02:06 30.53874 -96.14665 9676 ft 309 kts 91°
2026-04-25 02:07 30.53824 -96.12144 10353 ft 320 kts 91°
2026-04-25 02:07 30.53771 -96.09449 10564 ft 347 kts 91°
2026-04-25 02:07 30.53715 -96.06538 10643 ft 375 kts 91°
2026-04-25 02:07 30.53655 -96.03477 11261 ft 380 kts 91°
2026-04-25 02:08 30.53593 -96.00400 12003 ft 383 kts 91°
2026-04-25 02:08 30.53529 -95.97286 12666 ft 388 kts 91°
2026-04-25 02:08 30.53464 -95.94144 13352 ft 392 kts 91°
2026-04-25 02:08 30.53398 -95.90950 13966 ft 396 kts 91°
2026-04-25 02:09 30.53330 -95.87733 14535 ft 401 kts 91°
2026-04-25 02:09 30.53261 -95.84517 15101 ft 406 kts 91°
2026-04-25 02:09 30.53190 -95.81225 15681 ft 411 kts 91°
2026-04-25 02:09 30.53118 -95.77894 16296 ft 415 kts 91°
2026-04-25 02:10 30.53043 -95.74519 16900 ft 420 kts 91°
2026-04-25 02:10 30.52967 -95.71116 17523 ft 425 kts 91°
2026-04-25 02:10 30.52889 -95.67650 18116 ft 431 kts 91°
2026-04-25 02:10 30.52808 -95.64158 18703 ft 435 kts 91°
2026-04-25 02:11 30.52727 -95.60670 19371 ft 439 kts 91°
2026-04-25 02:11 30.52644 -95.57117 19996 ft 443 kts 90°
2026-04-25 02:11 30.52559 -95.53526 20615 ft 448 kts 90°
2026-04-25 02:11 30.52473 -95.49901 21238 ft 452 kts 90°
2026-04-25 02:12 30.52383 -95.46223 21857 ft 457 kts 90°
2026-04-25 02:12 30.52292 -95.42519 22488 ft 461 kts 89°
2026-04-25 02:12 30.52200 -95.38778 23113 ft 466 kts 89°
2026-04-25 02:12 30.52105 -95.35001 23674 ft 470 kts 89°
2026-04-25 02:13 30.52009 -95.31195 24190 ft 474 kts 89°
2026-04-25 02:13 30.51910 -95.27351 24698 ft 479 kts 89°
2026-04-25 02:13 30.51810 -95.23516 25175 ft 484 kts 89°
2026-04-25 02:13 30.51707 -95.19601 25672 ft 488 kts 89°
2026-04-25 02:14 30.51602 -95.15645 26147 ft 493 kts 89°
2026-04-25 02:14 30.51495 -95.11658 26631 ft 498 kts 89°
2026-04-25 02:14 30.51385 -95.07624 27101 ft 502 kts 89°
2026-04-25 02:14 30.51274 -95.03550 27579 ft 507 kts 89°
2026-04-25 02:15 30.51159 -94.99444 28055 ft 512 kts 90°
2026-04-25 02:15 30.51042 -94.95306 28535 ft 516 kts 90°
2026-04-25 02:15 30.50923 -94.91127 29025 ft 520 kts 89°
2026-04-25 02:15 30.50803 -94.86923 29475 ft 524 kts 89°
2026-04-25 02:16 30.50680 -94.82678 29911 ft 529 kts 90°
2026-04-25 02:16 30.50553 -94.78405 30304 ft 532 kts 90°
2026-04-25 02:16 30.50426 -94.74139 30712 ft 535 kts 90°
2026-04-25 02:16 30.50296 -94.69824 31282 ft 534 kts 90°
2026-04-25 02:17 30.50165 -94.65518 31899 ft 533 kts 90°
2026-04-25 02:17 30.50033 -94.61225 32478 ft 532 kts 90°
2026-04-25 02:17 30.49900 -94.56938 33063 ft 531 kts 89°
2026-04-25 02:17 30.49766 -94.52660 33776 ft 527 kts 89°
2026-04-25 02:18 30.49733 -94.48419 34279 ft 526 kts 86°
2026-04-25 02:18 30.49784 -94.44171 34752 ft 526 kts 86°
2026-04-25 02:18 30.49830 -94.39991 35229 ft 527 kts 86°
2026-04-25 02:18 30.49853 -94.35741 35700 ft 528 kts 86°
2026-04-25 02:19 30.49873 -94.31476 36183 ft 528 kts 86°
2026-04-25 02:19 30.49905 -94.27223 36676 ft 527 kts 86°
2026-04-25 02:19 30.49942 -94.22946 36824 ft 536 kts 86°
2026-04-25 02:19 30.49971 -94.18563 36809 ft 548 kts 86°
2026-04-25 02:20 30.49990 -94.14102 36837 ft 558 kts 86°
2026-04-25 02:20 30.50013 -94.09555 36844 ft 569 kts 86°
2026-04-25 02:20 30.50042 -94.04935 36841 ft 578 kts 86°
2026-04-25 02:21 30.50083 -93.95523 36847 ft 587 kts 87°
2026-04-25 02:21 30.50119 -93.86033 36845 ft 589 kts 86°
2026-04-25 02:22 30.50148 -93.76631 36832 ft 576 kts 86°
2026-04-25 02:22 30.50174 -93.67318 36832 ft 578 kts 86°
2026-04-25 02:23 30.50189 -93.57993 36833 ft 578 kts 86°
2026-04-25 02:23 30.50199 -93.48664 36836 ft 578 kts 86°
2026-04-25 02:24 30.50202 -93.39341 36833 ft 578 kts 86°
2026-04-25 02:24 30.50199 -93.30009 36837 ft 578 kts 86°
2026-04-25 02:25 30.50188 -93.20679 36837 ft 578 kts 86°
2026-04-25 02:25 30.50180 -93.16032 36686 ft 568 kts 86°
2026-04-25 02:25 30.50167 -93.11526 35914 ft 549 kts 86°
2026-04-25 02:25 30.50156 -93.07173 35212 ft 531 kts 86°
2026-04-25 02:26 30.50151 -93.04359 34757 ft 521 kts 86°
2026-04-25 02:26 30.50141 -93.00224 34096 ft 508 kts 86°
2026-04-25 02:26 30.50130 -92.96136 33440 ft 505 kts 86°
2026-04-25 02:26 30.50118 -92.92033 32771 ft 511 kts 86°
2026-04-25 02:27 30.50102 -92.87883 32101 ft 516 kts 86°
2026-04-25 02:27 30.50083 -92.83712 31419 ft 519 kts 86°
2026-04-25 02:27 30.50065 -92.79516 30736 ft 522 kts 86°
2026-04-25 02:27 30.50046 -92.75339 30052 ft 523 kts 86°
2026-04-25 02:28 30.50022 -92.71143 29323 ft 516 kts 86°
2026-04-25 02:28 30.49998 -92.67005 28659 ft 511 kts 87°
2026-04-25 02:28 30.49976 -92.62914 27982 ft 500 kts 87°
2026-04-25 02:28 30.49953 -92.58897 27331 ft 496 kts 88°
2026-04-25 02:29 30.49929 -92.54918 26683 ft 492 kts 88°
2026-04-25 02:29 30.49902 -92.50964 26040 ft 488 kts 88°
2026-04-25 02:29 30.49874 -92.47048 25402 ft 484 kts 88°
2026-04-25 02:29 30.49847 -92.43168 24775 ft 480 kts 88°
2026-04-25 02:30 30.49818 -92.39305 24146 ft 476 kts 88°
2026-04-25 02:30 30.49788 -92.35477 23525 ft 472 kts 88°
2026-04-25 02:30 30.49757 -92.31694 22854 ft 467 kts 88°
2026-04-25 02:30 30.49726 -92.27991 22255 ft 462 kts 89°
2026-04-25 02:31 30.49694 -92.24275 21644 ft 458 kts 89°
2026-04-25 02:31 30.49661 -92.20605 21046 ft 454 kts 89°
2026-04-25 02:31 30.49628 -92.16950 20450 ft 451 kts 89°
2026-04-25 02:31 30.49593 -92.13334 19953 ft 446 kts 89°
2026-04-25 02:32 30.49558 -92.09724 19398 ft 444 kts 89°
2026-04-25 02:32 30.49522 -92.06145 18816 ft 441 kts 89°
2026-04-25 02:32 30.49486 -92.02652 18248 ft 438 kts 90°
2026-04-25 02:32 30.49449 -91.99136 17631 ft 433 kts 90°
2026-04-25 02:33 30.49411 -91.95657 17061 ft 429 kts 90°
2026-04-25 02:33 30.49373 -91.92209 16499 ft 425 kts 90°
2026-04-25 02:33 30.49334 -91.88796 15943 ft 420 kts 90°
2026-04-25 02:33 30.49294 -91.85420 15387 ft 417 kts 90°
2026-04-25 02:34 30.49254 -91.82076 14847 ft 413 kts 90°
2026-04-25 02:34 30.49214 -91.78762 14306 ft 409 kts 90°
2026-04-25 02:34 30.49174 -91.75475 13769 ft 406 kts 91°
2026-04-25 02:34 30.49132 -91.72217 13203 ft 401 kts 91°
2026-04-25 02:35 30.49091 -91.69001 12676 ft 397 kts 91°
2026-04-25 02:35 30.49049 -91.65811 12159 ft 393 kts 91°
2026-04-25 02:35 30.49007 -91.62655 11642 ft 389 kts 91°
2026-04-25 02:35 30.48965 -91.59608 11142 ft 373 kts 91°
2026-04-25 02:36 30.48925 -91.56682 10664 ft 353 kts 91°
2026-04-25 02:36 30.48886 -91.53907 10214 ft 336 kts 91°
2026-04-25 02:36 30.48849 -91.51286 9790 ft 313 kts 91°
2026-04-25 02:36 30.48813 -91.48803 9361 ft 303 kts 91°
2026-04-25 02:37 30.48777 -91.46405 8970 ft 292 kts 91°
2026-04-25 02:37 30.48742 -91.44088 8594 ft 283 kts 91°
2026-04-25 02:37 30.48708 -91.41841 8231 ft 275 kts 91°
2026-04-25 02:37 30.48675 -91.39645 7886 ft 268 kts 91°
2026-04-25 02:38 30.48642 -91.37507 7539 ft 262 kts 92°
2026-04-25 02:38 30.48610 -91.35417 7200 ft 257 kts 92°
2026-04-25 02:38 30.48577 -91.33366 6863 ft 253 kts 91°
2026-04-25 02:38 30.48545 -91.31327 6531 ft 250 kts 92°
2026-04-25 02:39 30.48660 -91.29338 6136 ft 248 kts 74°
2026-04-25 02:39 30.49463 -91.27597 5839 ft 244 kts 56°
2026-04-25 02:39 30.50370 -91.25929 5545 ft 244 kts 57°
2026-04-25 02:39 30.51256 -91.24256 5223 ft 242 kts 58°
2026-04-25 02:40 30.52120 -91.22616 4907 ft 238 kts 58°
2026-04-25 02:40 30.52987 -91.20983 4573 ft 233 kts 58°
2026-04-25 02:40 30.53813 -91.19427 4256 ft 220 kts 59°
2026-04-25 02:40 30.54593 -91.17953 3970 ft 209 kts 59°
2026-04-25 02:41 30.55342 -91.16538 3700 ft 204 kts 59°
2026-04-25 02:41 30.56072 -91.15161 3443 ft 198 kts 59°
2026-04-25 02:41 30.56791 -91.13803 3182 ft 195 kts 60°
2026-04-25 02:41 30.57497 -91.12468 2924 ft 191 kts 60°
2026-04-25 02:42 30.58192 -91.11155 2668 ft 191 kts 61°
2026-04-25 02:42 30.58871 -91.09869 2417 ft 189 kts 61°
2026-04-25 02:42 30.59553 -91.08581 2168 ft 187 kts 60°
2026-04-25 02:42 30.60231 -91.07308 1923 ft 184 kts 59°
2026-04-25 02:43 30.61095 -91.06260 1905 ft 178 kts 43°
2026-04-25 02:43 30.62026 -91.05254 1911 ft 183 kts 45°
2026-04-25 02:43 30.62950 -91.04232 1914 ft 183 kts 45°
2026-04-25 02:43 30.63851 -91.03170 1893 ft 188 kts 54°
2026-04-25 02:44 30.64277 -91.01794 1892 ft 180 kts 86°
2026-04-25 02:44 30.64335 -91.00328 1916 ft 181 kts 90°
2026-04-25 02:44 30.64399 -90.98865 1926 ft 182 kts 89°
2026-04-25 02:44 30.64465 -90.97407 1917 ft 180 kts 90°
2026-04-25 02:45 30.64528 -90.95949 1925 ft 180 kts 89°
2026-04-25 02:45 30.64729 -90.94522 1877 ft 183 kts 69°
2026-04-25 02:45 30.65511 -90.93354 1889 ft 187 kts 39°
2026-04-25 02:45 30.66690 -90.92772 1928 ft 187 kts
2026-04-25 02:46 30.67958 -90.92931 1921 ft 183 kts 338°
2026-04-25 02:46 30.68980 -90.93764 1904 ft 180 kts 308°
2026-04-25 02:46 30.69524 -90.95034 1912 ft 175 kts 279°
2026-04-25 02:46 30.69500 -90.96419 1901 ft 171 kts 252°
2026-04-25 02:47 30.68876 -90.97582 1917 ft 171 kts 227°
2026-04-25 02:47 30.68039 -90.98566 1931 ft 171 kts 224°
2026-04-25 02:47 30.67205 -90.99504 1923 ft 168 kts 222°
2026-04-25 02:47 30.66349 -91.00447 1921 ft 170 kts 222°
2026-04-25 02:48 30.65495 -91.01388 1918 ft 167 kts 222°
2026-04-25 02:48 30.64647 -91.02321 1921 ft 172 kts 222°
2026-04-25 02:48 30.63793 -91.03260 1903 ft 171 kts 223°
2026-04-25 02:48 30.62932 -91.04207 1889 ft 171 kts 223°
2026-04-25 02:49 30.62076 -91.05149 1905 ft 167 kts 223°
2026-04-25 02:49 30.61228 -91.06089 1902 ft 171 kts 223°
2026-04-25 02:49 30.60376 -91.07027 1712 ft 166 kts 222°
2026-04-25 02:49 30.59541 -91.07944 1493 ft 155 kts 223°
2026-04-25 02:50 30.58824 -91.08739 1294 ft 134 kts 224°
2026-04-25 02:50 30.58177 -91.09454 1129 ft 130 kts 224°
2026-04-25 02:50 30.57514 -91.10185 971 ft 130 kts 224°
2026-04-25 02:50 30.56878 -91.10899 823 ft 128 kts 224°
2026-04-25 02:51 30.56244 -91.11599 673 ft 123 kts 221°
2026-04-25 02:51 30.55637 -91.12255 531 ft 119 kts 219°
2026-04-25 02:51 30.55033 -91.12923 373 ft 122 kts 220°
2026-04-25 02:51 30.54424 -91.13591 233 ft 118 kts 220°
2026-04-25 02:52 30.53845 -91.14221 88 ft 108 kts 219°
2026-04-25 02:52 30.53402 -91.14707 80 ft 59 kts 224°
2026-04-25 02:52 30.53188 -91.14942 76 ft 32 kts 223°
2026-04-25 02:52 30.53099 -91.15033 73 ft 8 kts 205°
2026-04-25 02:53 30.53039 -91.15013 75 ft 11 kts 134°
2026-04-25 02:53 30.52990 -91.14955 81 ft 9 kts 134°
2026-04-25 02:53 30.52948 -91.14905 69 ft 9 kts 134°
2026-04-25 02:53 30.52898 -91.14868 75 ft 10 kts 198°
2026-04-25 02:54 30.52840 -91.14926 76 ft 11 kts 223°
2026-04-25 02:54 30.52779 -91.14963 75 ft 10 kts 177°
2026-04-25 02:54 30.52704 -91.14959 75 ft 11 kts 177°
2026-04-25 02:54 30.52631 -91.14955 70 ft 10 kts 178°
2026-04-25 02:55 30.52618 -91.14947 75 ft 1 kts 83°
2026-04-25 02:55 30.52622 -91.14946 73 ft 0 kts 32°